Date String (YYYY-MM-DD hh:mm:ss) UTC,Instrument flags,Ambient pressure (hPa),Sample flow (lpm),Bypass flow (lpm),Sample temperature (°C),Ambient temperature (°C),ASC tube jacket temperature (°C),LED temperature (°C),Box temperature (°C),Sample RH (%),Span deviation,Mass concentration (μg/m³),Mass concentration (μg/m³),Mass concentration (μg/m³)
DateTimeUTC,F1_M11,P_M11,Q1_M11,Q2_M11,T1_M11,T2_M11,T3_M11,T4_M11,T5_M11,U1_M11,ZSPAN_M11,X2_M11,X0_M11,X1_M11
2023-04-11 22:00:00,,0828.6,5.02,0.00,29.9,25.7,00.0,38.1,31.1,05.0,0000.0,0002.78,0006.56,0001.65
2023-04-11 22:01:00,,0828.6,5.00,0.00,29.8,26.0,00.0,38.1,31.1,05.0,0000.0,0002.82,0006.69,0001.65
2023-04-11 22:02:00,,0828.7,5.00,0.00,29.8,26.3,00.0,38.1,31.0,05.2,0000.0,0002.87,0007.07,0001.66
2023-04-11 22:03:00,,0828.7,5.01,0.00,29.7,26.7,00.0,38.1,31.1,05.2,0000.0,0002.90,0007.06,0001.67
2023-04-11 22:04:00,,0828.7,5.00,0.00,29.7,27.1,00.0,38.1,31.2,05.4,0000.0,0002.86,0006.52,0001.67
2023-04-11 22:05:00,,0828.7,5.00,0.00,29.7,27.4,00.0,38.1,31.2,05.3,0000.0,0002.69,0005.72,0001.67
2023-04-11 22:06:00,,0828.7,5.00,0.00,29.8,27.6,00.0,38.1,31.3,05.5,0000.0,0002.67,0005.65,0001.68
2023-04-11 22:07:00,,0828.6,5.00,0.00,29.8,27.9,00.0,38.2,31.3,05.4,0000.0,0002.68,0005.41,0001.68
2023-04-11 22:08:00,,0828.7,5.00,0.00,29.8,28.1,00.0,38.2,31.4,05.5,0000.0,0002.72,0005.44,0001.68
2023-04-11 22:09:00,,0828.7,5.01,0.00,29.8,28.2,00.0,38.2,31.5,05.4,0000.0,0002.72,0005.47,0001.69
2023-04-11 22:10:00,,0828.7,5.00,0.00,29.9,28.4,00.0,38.2,31.5,05.5,0000.0,0002.73,0006.57,0001.69
2023-04-11 22:11:00,,0828.6,4.98,0.00,29.9,28.5,00.0,38.2,31.5,05.5,0000.0,0002.69,0006.40,0001.70
2023-04-11 22:12:00,,0828.6,5.00,0.00,29.9,28.6,00.0,38.2,31.6,05.4,0000.0,0002.69,0006.33,0001.70
2023-04-11 22:13:00,,0828.6,5.01,0.00,30.0,28.7,00.0,38.2,31.6,05.5,0000.0,0002.76,0006.33,0001.71
2023-04-11 22:14:00,,0828.6,5.00,0.00,30.0,28.8,00.0,38.3,31.7,05.1,0000.0,0002.75,0006.33,0001.70
2023-04-11 22:15:00,,0828.6,4.99,0.00,30.0,28.9,00.0,38.3,31.7,05.3,0000.0,0002.72,0006.27,0001.69
2023-04-11 22:16:00,,0828.6,5.00,0.00,30.1,28.9,00.0,38.3,31.8,05.2,0000.0,0002.77,0006.46,0001.69
2023-04-11 22:17:00,,0828.6,4.99,0.00,30.1,28.9,00.0,38.3,31.8,05.2,0000.0,0002.81,0006.52,0001.68
2023-04-11 22:18:00,,0828.6,4.99,0.00,30.1,27.6,00.0,38.3,31.6,05.4,0000.0,0002.80,0006.56,0001.69
2023-04-11 22:19:00,,0828.6,5.01,0.00,30.0,25.9,00.0,38.2,31.3,05.3,0000.0,0002.77,0006.50,0001.71
2023-04-11 22:20:00,,0828.6,5.01,0.00,30.0,25.8,00.0,38.1,31.2,05.4,0000.0,0002.81,0006.98,0001.70
2023-04-11 22:21:00,,0828.6,4.99,0.00,29.9,26.1,00.0,38.1,31.2,05.4,0000.0,0002.82,0006.23,0001.72
2023-04-11 22:22:00,,0828.6,5.00,0.00,29.8,26.4,00.0,38.1,31.2,05.4,0000.0,0002.90,0006.65,0001.73
2023-04-11 22:23:00,,0828.6,5.00,0.00,29.8,26.8,00.0,38.2,31.2,05.7,0000.0,0002.92,0007.59,0001.74
2023-04-11 22:24:00,,0828.6,5.00,0.00,29.8,27.1,00.0,38.2,31.2,05.8,0000.0,0002.77,0007.65,0001.73
2023-04-11 22:25:00,,0828.6,5.00,0.00,29.8,27.4,00.0,38.2,31.3,05.9,0000.0,0002.81,0007.61,0001.75
2023-04-11 22:26:00,,0828.6,5.01,0.00,29.8,27.7,00.0,38.2,31.4,05.7,0000.0,0002.88,0007.67,0001.77
2023-04-11 22:27:00,,0828.6,5.00,0.00,29.8,28.0,00.0,38.2,31.4,05.6,0000.0,0002.94,0007.72,0001.78
2023-04-11 22:28:00,,0828.6,5.00,0.00,29.9,28.2,00.0,38.2,31.4,05.6,0000.0,0002.99,0007.82,0001.80
2023-04-11 22:29:00,,0828.6,5.00,0.00,29.9,28.3,00.0,38.2,31.5,05.5,0000.0,0003.05,0007.93,0001.81
2023-04-11 22:30:00,,0828.6,5.01,0.00,29.9,28.5,00.0,38.2,31.5,05.4,0000.0,0003.08,0007.99,0001.80
2023-04-11 22:31:00,,0828.6,4.98,0.00,30.0,28.6,00.0,38.3,31.6,05.6,0000.0,0003.07,0007.81,0001.81
2023-04-11 22:32:00,,0828.6,5.00,0.00,30.0,28.7,00.0,38.3,31.7,05.6,0000.0,0003.09,0007.88,0001.81
2023-04-11 22:33:00,,0828.6,4.98,0.00,30.0,28.8,00.0,38.3,31.7,05.6,0000.0,0003.11,0008.05,0001.82
2023-04-11 22:34:00,,0828.6,4.99,0.00,30.1,28.9,00.0,38.3,31.8,05.7,0000.0,0003.14,0008.34,0001.84
2023-04-11 22:35:00,,0828.6,5.00,0.00,30.1,29.0,00.0,38.4,31.8,05.7,0000.0,0003.19,0008.28,0001.85
2023-04-11 22:36:00,,0828.6,4.98,0.00,30.1,28.7,00.0,38.4,31.8,05.7,0000.0,0003.19,0008.29,0001.84
2023-04-11 22:37:00,,0828.6,5.00,0.00,30.1,27.0,00.0,38.3,31.5,05.6,0000.0,0003.19,0008.25,0001.83
2023-04-11 22:38:00,,0828.5,5.01,0.00,30.0,25.8,00.0,38.2,31.2,05.6,0000.0,0003.17,0008.19,0001.82
2023-04-11 22:39:00,,0828.4,5.01,0.00,29.9,25.9,00.0,38.1,31.2,05.7,0000.0,0003.15,0008.13,0001.81
2023-04-11 22:40:00,,0828.4,5.00,0.00,29.9,26.3,00.0,38.2,31.1,06.0,0000.0,0003.13,0008.08,0001.81
2023-04-11 22:41:00,,0828.4,5.00,0.00,29.8,26.6,00.0,38.2,31.1,05.8,0000.0,0003.12,0008.00,0001.81
2023-04-11 22:42:00,,0828.4,5.00,0.00,29.8,27.0,00.0,38.2,31.2,05.9,0000.0,0003.11,0007.97,0001.81
2023-04-11 22:43:00,,0828.4,5.01,0.00,29.8,27.3,00.0,38.2,31.3,05.6,0000.0,0003.11,0007.76,0001.80
2023-04-11 22:44:00,,0828.4,5.00,0.00,29.8,27.6,00.0,38.2,31.3,05.8,0000.0,0003.12,0007.56,0001.80
2023-04-11 22:45:00,,0828.4,5.00,0.00,29.8,27.9,00.0,38.2,31.4,05.7,0000.0,0003.08,0006.16,0001.78
2023-04-11 22:46:00,,0828.4,5.00,0.00,29.8,28.1,00.0,38.2,31.4,05.7,0000.0,0003.08,0005.82,0001.78
2023-04-11 22:47:00,,0828.4,5.01,0.00,29.9,28.2,00.0,38.2,31.5,05.8,0000.0,0003.10,0005.90,0001.79
2023-04-11 22:48:00,,0828.4,4.99,0.00,29.9,28.4,00.0,38.2,31.6,06.0,0000.0,0003.05,0005.87,0001.78
2023-04-11 22:49:00,,0828.4,5.00,0.00,29.9,28.5,00.0,38.3,31.6,06.0,0000.0,0003.07,0005.97,0001.79
2023-04-11 22:50:00,,0828.4,4.99,0.00,30.0,28.6,00.0,38.3,31.6,05.9,0000.0,0003.12,0006.03,0001.79
2023-04-11 22:51:00,,0828.4,4.99,0.00,30.0,28.7,00.0,38.3,31.7,06.0,0000.0,0003.11,0006.01,0001.79
2023-04-11 22:52:00,,0828.4,4.99,0.00,30.0,28.8,00.0,38.3,31.8,05.9,0000.0,0003.09,0006.42,0001.79
2023-04-11 22:53:00,,0828.4,5.00,0.00,30.1,28.9,00.0,38.4,31.8,06.0,0000.0,0003.11,0006.40,0001.79
2023-04-11 22:54:00,,0828.4,5.00,0.00,30.1,28.1,00.0,38.3,31.7,06.0,0000.0,0003.12,0007.02,0001.80
2023-04-11 22:55:00,,0828.4,5.00,0.00,30.0,26.3,00.0,38.2,31.3,06.0,0000.0,0003.10,0007.36,0001.81
2023-04-11 22:56:00,,0828.3,5.02,0.00,30.0,25.8,00.0,38.1,31.2,06.0,0000.0,0003.11,0007.67,0001.82
2023-04-11 22:57:00,,0828.3,5.00,0.00,29.9,26.0,00.0,38.1,31.2,06.0,0000.0,0003.10,0007.71,0001.82
2023-04-11 22:58:00,,0828.3,5.00,0.00,29.8,26.4,00.0,38.2,31.2,06.1,0000.0,0003.05,0007.63,0001.81
2023-04-11 22:59:00,,0828.3,5.00,0.00,29.8,26.8,00.0,38.2,31.2,06.1,0000.0,0003.06,0007.57,0001.82
